TimePST,TemperatureF,Dew PointF,Humidity,Sea Level PressureIn,VisibilityMPH,Wind Direction,Wind SpeedMPH,Gust SpeedMPH,PrecipitationIn,Events,Conditions,WindDirDegrees,DateUTC
12:15 AM,50.0,32.0,50,30.06,10.0,Calm,Calm,-,N/A,,Clear,0,2012-11-22 08:15:00
12:35 AM,50.0,32.0,50,30.07,10.0,Calm,Calm,-,N/A,,Clear,0,2012-11-22 08:35:00
12:55 AM,48.2,32.0,54,30.07,10.0,Calm,Calm,-,N/A,,Clear,0,2012-11-22 08:55:00
1:15 AM,48.2,32.0,54,30.07,10.0,Calm,Calm,-,N/A,,Clear,0,2012-11-22 09:15:00
1:35 AM,48.2,32.0,54,30.08,10.0,Calm,Calm,-,N/A,,Clear,0,2012-11-22 09:35:00
1:55 AM,48.2,32.0,54,30.08,10.0,Calm,Calm,-,N/A,,Clear,0,2012-11-22 09:55:00
2:15 AM,48.2,33.8,58,30.09,10.0,Calm,Calm,-,N/A,,Clear,0,2012-11-22 10:15:00
2:35 AM,50.0,33.8,54,30.09,10.0,Calm,Calm,-,N/A,,Clear,0,2012-11-22 10:35:00
2:55 AM,51.8,32.0,47,30.09,10.0,North,3.5,-,N/A,,Clear,350,2012-11-22 10:55:00
3:15 AM,48.2,32.0,54,30.09,10.0,Calm,Calm,-,N/A,,Clear,0,2012-11-22 11:15:00
3:35 AM,48.2,32.0,54,30.10,10.0,Calm,Calm,-,N/A,,Clear,0,2012-11-22 11:35:00
3:55 AM,46.4,32.0,57,30.10,10.0,Calm,Calm,-,N/A,,Clear,0,2012-11-22 11:55:00
4:15 AM,44.6,32.0,61,30.11,10.0,Calm,Calm,-,N/A,,Clear,0,2012-11-22 12:15:00
4:35 AM,46.4,32.0,57,30.11,10.0,Calm,Calm,-,N/A,,Clear,0,2012-11-22 12:35:00
4:55 AM,46.4,32.0,57,30.12,10.0,Calm,Calm,-,N/A,,Clear,0,2012-11-22 12:55:00
5:15 AM,46.4,32.0,57,30.12,10.0,Calm,Calm,-,N/A,,Clear,0,2012-11-22 13:15:00
5:35 AM,44.6,32.0,61,30.13,10.0,Calm,Calm,-,N/A,,Clear,0,2012-11-22 13:35:00
5:55 AM,46.4,32.0,57,30.14,10.0,Calm,Calm,-,N/A,,Clear,0,2012-11-22 13:55:00
6:15 AM,48.2,30.2,50,30.14,10.0,Calm,Calm,-,N/A,,Clear,0,2012-11-22 14:15:00
6:35 AM,44.6,30.2,57,30.15,10.0,Calm,Calm,-,N/A,,Clear,0,2012-11-22 14:35:00
6:55 AM,46.4,28.4,50,30.15,10.0,West,5.8,-,N/A,,Clear,280,2012-11-22 14:55:00
7:15 AM,50.0,30.2,47,30.16,10.0,WSW,5.8,-,N/A,,Clear,250,2012-11-22 15:15:00
7:35 AM,50.0,30.2,47,30.17,10.0,Calm,Calm,-,N/A,,Clear,0,2012-11-22 15:35:00
7:55 AM,50.0,28.4,43,30.18,10.0,WSW,3.5,-,N/A,,Clear,240,2012-11-22 15:55:00
8:15 AM,50.0,28.4,43,30.19,10.0,Calm,Calm,-,N/A,,Clear,0,2012-11-22 16:15:00
8:35 AM,53.6,30.2,41,30.19,10.0,Calm,Calm,-,N/A,,Clear,0,2012-11-22 16:35:00
8:55 AM,55.4,30.2,38,30.20,10.0,Calm,Calm,-,N/A,,Clear,0,2012-11-22 16:55:00
9:15 AM,57.2,32.0,38,30.21,10.0,Calm,Calm,-,N/A,,Clear,0,2012-11-22 17:15:00
9:35 AM,57.2,32.0,38,30.21,10.0,Calm,Calm,-,N/A,,Clear,0,2012-11-22 17:35:00
9:55 AM,60.8,32.0,34,30.21,10.0,Calm,Calm,-,N/A,,Clear,0,2012-11-22 17:55:00
10:15 AM,62.6,32.0,32,30.21,10.0,SE,3.5,-,N/A,,Clear,130,2012-11-22 18:15:00
10:35 AM,64.4,35.6,34,30.20,10.0,Calm,Calm,-,N/A,,Clear,0,2012-11-22 18:35:00
10:55 AM,64.4,32.0,30,30.20,10.0,NE,6.9,-,N/A,,Clear,40,2012-11-22 18:55:00
11:15 AM,66.2,32.0,28,30.19,10.0,East,5.8,-,N/A,,Clear,80,2012-11-22 19:15:00
11:35 AM,66.2,32.0,28,30.19,10.0,NNE,8.1,-,N/A,,Clear,30,2012-11-22 19:35:00
11:55 AM,68.0,32.0,26,30.18,10.0,NNE,10.4,-,N/A,,Clear,30,2012-11-22 19:55:00
12:15 PM,66.2,32.0,28,30.18,10.0,NE,11.5,-,N/A,,Clear,40,2012-11-22 20:15:00
12:35 PM,68.0,32.0,26,30.17,10.0,NE,6.9,-,N/A,,Clear,50,2012-11-22 20:35:00
12:55 PM,68.0,30.2,24,30.17,10.0,ENE,8.1,-,N/A,,Clear,60,2012-11-22 20:55:00
1:15 PM,68.0,32.0,26,30.17,10.0,ENE,5.8,-,N/A,,Clear,60,2012-11-22 21:15:00
1:35 PM,69.8,30.2,23,30.16,10.0,NNE,9.2,-,N/A,,Clear,30,2012-11-22 21:35:00
1:55 PM,69.8,28.4,21,30.16,10.0,NE,6.9,-,N/A,,Clear,50,2012-11-22 21:55:00
2:15 PM,71.6,28.4,20,30.16,10.0,NNE,6.9,-,N/A,,Clear,30,2012-11-22 22:15:00
2:35 PM,71.6,28.4,20,30.16,10.0,North,6.9,-,N/A,,Clear,350,2012-11-22 22:35:00
2:55 PM,71.6,28.4,20,30.16,10.0,NE,4.6,-,N/A,,Clear,40,2012-11-22 22:55:00
3:15 PM,69.8,30.2,23,30.16,10.0,NE,4.6,-,N/A,,Clear,40,2012-11-22 23:15:00
3:35 PM,69.8,28.4,21,30.16,10.0,NE,4.6,-,N/A,,Clear,50,2012-11-22 23:35:00
3:55 PM,69.8,28.4,21,30.16,10.0,NE,3.5,-,N/A,,Clear,40,2012-11-22 23:55:00
4:15 PM,68.0,32.0,26,30.16,10.0,Calm,Calm,-,N/A,,Clear,0,2012-11-23 00:15:00
4:35 PM,66.2,30.2,26,30.17,10.0,NNE,3.5,-,N/A,,Clear,20,2012-11-23 00:35:00
4:55 PM,64.4,30.2,28,30.17,10.0,North,3.5,-,N/A,,Clear,360,2012-11-23 00:55:00
5:15 PM,64.4,28.4,26,30.17,10.0,North,5.8,-,N/A,,Clear,360,2012-11-23 01:15:00
5:35 PM,64.4,28.4,26,30.18,10.0,North,6.9,-,N/A,,Clear,360,2012-11-23 01:35:00
5:55 PM,64.4,28.4,26,30.18,10.0,NNW,8.1,-,N/A,,Clear,340,2012-11-23 01:55:00
6:15 PM,64.4,28.4,26,30.19,10.0,North,8.1,-,N/A,,Clear,360,2012-11-23 02:15:00
6:35 PM,62.6,28.4,27,30.20,10.0,North,5.8,-,N/A,,Clear,360,2012-11-23 02:35:00
6:55 PM,62.6,28.4,27,30.20,10.0,NNE,5.8,-,N/A,,Clear,20,2012-11-23 02:55:00
7:15 PM,60.8,30.2,31,30.20,10.0,North,6.9,-,N/A,,Clear,10,2012-11-23 03:15:00
7:35 PM,60.8,30.2,31,30.21,10.0,North,6.9,-,N/A,,Clear,10,2012-11-23 03:35:00
7:55 PM,60.8,30.2,31,30.22,10.0,NNE,5.8,-,N/A,,Clear,20,2012-11-23 03:55:00
8:15 PM,60.8,30.2,31,30.23,10.0,NNW,4.6,-,N/A,,Clear,330,2012-11-23 04:15:00
8:35 PM,59.0,28.4,31,30.23,10.0,West,3.5,-,N/A,,Clear,280,2012-11-23 04:35:00
8:55 PM,59.0,30.2,34,30.24,10.0,WNW,4.6,-,N/A,,Clear,300,2012-11-23 04:55:00
9:15 PM,59.0,30.2,34,30.25,10.0,NW,5.8,-,N/A,,Clear,320,2012-11-23 05:15:00
9:35 PM,59.0,32.0,36,30.25,10.0,NW,5.8,-,N/A,,Clear,320,2012-11-23 05:35:00
9:55 PM,57.2,32.0,38,30.25,10.0,Calm,Calm,-,N/A,,Clear,0,2012-11-23 05:55:00
10:15 PM,59.0,30.2,34,30.25,10.0,Calm,Calm,-,N/A,,Clear,0,2012-11-23 06:15:00
10:35 PM,59.0,30.2,34,30.25,10.0,Calm,Calm,-,N/A,,Clear,0,2012-11-23 06:35:00
10:55 PM,59.0,28.4,31,30.26,10.0,Calm,Calm,-,N/A,,Clear,0,2012-11-23 06:55:00
11:15 PM,57.2,30.2,36,30.26,10.0,Calm,Calm,-,N/A,,Clear,0,2012-11-23 07:15:00
11:35 PM,55.4,28.4,36,30.26,10.0,NW,5.8,-,N/A,,Clear,320,2012-11-23 07:35:00
11:55 PM,55.4,28.4,36,30.26,10.0,NNW,3.5,-,N/A,,Clear,330,2012-11-23 07:55:00